Vertical_Velocity
2 -1 -1 2 -1 -2 -0 -0 2 -1 -4 -0 -2 -3 -1 -5 1 -3 -2 -1 1 -2 2 -5 3 -3 -0
-1 -5 -1 13 -2 -3 -0 -0 1 2 1 -10 -2 0 2 -1 -9 6 -7 0 1 -4 3 -2 -1 -0 -4
-2 -2 -0 -2 -2 -0 -1 -5 -5 -2 -2 6 -4 -4 -6 -1 -2 4 2 1 -2 4 1 -0 -0 1 2
1 -0 -1 -2 -3 -6 -4 -1 -1 -1 2 -1 -2 2 3 3 0 -3 3 -2 4 1 -3 5 -1 -1 -1
-1 -2 -1 -0 0 2 0 0 -1 -4 -3 -0 3 0 -4 1 2 1 -3 -3 -3 -3 1 -1 0 -1 -1
-2 -2 -1 0 0 -0 -1 -1 -2 2 -0 -1 -3 -1 -1 -2 -2 -2 -1 -1 -1 -2 -2 -2 -2 -1 -0
-1 -0 0 -1 -1 -2 -1 0 -1 -2 -4 0 -1 -0 -1 -2 -1 -1 -2 -2 -3 -4 -4 -3 -3 -4 -2
-1 -2 0 0 -0 -0 -1 -1 -1 -1 -2 -5 -3 -2 -2 -2 -1 -2 -3 -3 -2 -0 -0 -1 -1 -1 1
2 -0 -1 -1 -0 -0 -1 -1 0 -2 1 0 2 1 3 0 -1 -2 -3 -3 -3 -3 -1 -2 -3 -3 1
-1 -0 -1 -1 -1 1 1 -0 -1 -1 -0 -2 2 -5 0 4 -1 -5 -3 -4 -3 -3 -3 -4 -3 -5 -3
1 1 2 1 -3 -2 -1 -1 -1 2 -5 -6 -1 -2 -1 -6 5 -6 -8 -3 -1 -2 -1 -2 -3 -6 -1
-2 -2 -2 -1 0 -2 -1 -1 -2 -3 -4 -4 -1 -4 -5 -4 -8 3 -2 -1 -4 -1 -1 -1 0 -2 -4
-0 -1 -1 -1 -2 -1 -2 -2 -3 -2 -3 -2 -0 -2 -4 -4 -8 0 -8 7 -1 1 -0 -0 -2 -5 -0
-2 -1 -1 -0 -0 1 -0 -3 -1 -2 1 -3 -5 -4 1 -3 -4 -2 -3 -7 -2 -0 -1 1 -1 -3 -2
0 -1 0 1 0 1 1 -2 -0 0 -1 -2 -2 -0 -2 -4 1 -7 -2 1 -3 -3 -3 1 2 -4 -2
1 1 1 0 -2 -2 1 -2 1 -1 -1 -2 -2 1 2 6 -4 -7 -2 -6 -1 0 -3 -7 5 -3 -1
-1 -1 1 2 -1 -2 -2 -2 -1 0 -3 -3 -3 -3 -1 -1 5 -6 -6 -0 -2 2 -4 -3 -2 3 -0
Height
3009 3011 3011 3012 3012 3012 3011 3010 3009 3007 3006 3005 3004 3005 3005 3004 3003 3001 3000 3001 3000 3000 2999 3000 3000 2998 2997
3003 3004 3005 3003 3004 3004 3002 3001 2999 2998 2997 2996 2996 2996 2996 2995 2994 2991 2990 2991 2990 2990 2988 2989 2989 2988 2987
2996 2997 2997 2997 2997 2996 2995 2993 2991 2991 2990 2989 2989 2989 2988 2987 2985 2983 2982 2982 2981 2978 2978 2978 2978 2977 2976
2990 2991 2991 2990 2989 2989 2988 2986 2986 2985 2984 2983 2982 2980 2979 2978 2978 2976 2973 2973 2971 2969 2968 2966 2966 2965 2965
2984 2984 2984 2984 2983 2982 2981 2980 2979 2979 2977 2974 2975 2973 2970 2969 2967 2966 2964 2962 2960 2959 2958 2956 2956 2955 2954
2981 2980 2979 2979 2978 2977 2976 2976 2974 2972 2971 2968 2965 2964 2962 2960 2958 2956 2954 2952 2949 2947 2946 2945 2943 2942 2941
2978 2976 2975 2974 2973 2972 2971 2970 2968 2966 2965 2963 2961 2959 2955 2952 2949 2946 2943 2941 2938 2936 2933 2931 2930 2928 2926
2974 2972 2971 2970 2968 2966 2964 2962 2960 2958 2956 2955 2952 2950 2946 2942 2938 2935 2932 2929 2926 2923 2920 2918 2915 2913 2912
2969 2967 2966 2963 2961 2960 2957 2954 2951 2949 2948 2945 2942 2941 2939 2935 2930 2925 2921 2918 2914 2911 2908 2905 2903 2900 2898
2963 2961 2960 2958 2956 2954 2951 2948 2945 2942 2941 2939 2934 2930 2931 2928 2922 2916 2912 2908 2904 2900 2897 2893 2890 2887 2885
2957 2956 2954 2952 2950 2948 2945 2942 2939 2936 2932 2930 2927 2922 2917 2914 2917 2909 2903 2898 2894 2890 2886 2883 2880 2874 2870
2951 2950 2948 2946 2944 2942 2939 2936 2933 2931 2927 2922 2919 2915 2910 2906 2903 2903 2895 2890 2884 2880 2877 2874 2871 2867 2863
2945 2944 2942 2940 2938 2935 2933 2930 2927 2923 2919 2915 2911 2908 2903 2898 2892 2889 2882 2883 2877 2873 2870 2867 2864 2860 2857
2939 2938 2935 2933 2931 2928 2926 2923 2920 2916 2912 2907 2904 2901 2897 2891 2884 2880 2876 2871 2871 2867 2863 2861 2857 2851 2849
2933 2931 2929 2926 2924 2922 2919 2916 2913 2910 2905 2901 2898 2895 2889 2882 2877 2873 2871 2868 2863 2860 2856 2854 2852 2846 2844
2927 2925 2922 2920 2918 2916 2913 2910 2906 2902 2899 2896 2893 2889 2885 2880 2871 2868 2865 2862 2859 2855 2851 2847 2846 2843 2838
2920 2919 2916 2913 2911 2908 2906 2903 2899 2896 2893 2889 2885 2881 2877 2873 2871 2862 2861 2858 2855 2851 2847 2843 2839 2837 2833